www.pogodaiklimat.ru

Погода и климат >> Архив погоды >> Россия >> Ямало-Ненецкий АО >> Красноселькупск


ПОГОДА в Красноселькупске

  • Прогноз погоды в Красноселькупске
  • Монитор погоды в Красноселькупске

АРХИВ ПОГОДЫ в Красноселькупске

Время (UTC), дата Ветер
(напр.,м/с)
 
Видим.   Явления Облачность Т
(С)
Тd
(С)
f
(%)
Тe
(С)
Тes
(С)
Комфортность P
(гПа)
Po
(гПа)
Тmin
(С)
Tmax
(С)
R
(мм)
R24
(мм)
S
(см)
06 17.07 В 3 20 км ясно +30.9 +13.2 34 +32 +41 жарко 1011.7 1008.9
09 17.07 В 3 20 км ясно +32.3 +12.9 31 +33 +41 жарко 1010.4 1007.6
12 17.07 В 3 20 км 3/3
[Cu med, cong Ci fib]
+32.4 +13.5 32 +34 +35 очень
жарко
1009.9 1007.1
15 17.07 В 2 20 км 5/0
[Ci fib]
+28.5 +16.4 48 +32 +32 душно 1010.1 1007.3 +33.1
18 17.07 СВ 2 20 км 5/0
[Ci fib]
+22.4 +16.3 68 +27 +27 душно 1011.0 1008.1
21 17.07 СВ 3 20 км 3/0
[Ci fib]
+19.1 +13.0 68 +20 +20 1011.0 1008.1
00 18.07 СВ 2 20 км ясно +20.2 +13.8 67 +23 +25 комфорт 1010.9 1008.0
03 18.07 СВ 3 20 км ясно +25.9 +16.1 55 +29 +35 душно 1010.5 1007.7 +18.5
06 18.07 В 3 20 км 3/0
[Ci fib]
+30.3 +17.2 45 +34 +43 очень
душно
1010.1 1007.3
09 18.07 В 3 20 км 3/0
[Ci fib]
+32.4 +16.8 39 +36 +42 очень
душно
1009.5 1006.7
12 18.07 В 4 20 км 3/0
[Ci fib]
+31.4 +16.1 40 +34 +36 душно 1009.6 1006.8
15 18.07 В 3 20 км ясно +27.8 +17.0 52 +32 +32 душно 1010.3 1007.5 +32.4
18 18.07 СВ 1 20 км ясно +22.3 +16.6 70 +27 +27 душно 1011.6 1008.7
21 18.07 В 1 20 км ясно +20.1 +15.4 74 +24 +24 комфорт 1011.9 1009.0
00 19.07 ЮВ 3 20 км ясно +21.7 +15.3 67 +25 +26 комфорт 1013.0 1010.1
03 19.07 В 3 20 км ясно +25.0 +14.6 52 +28 +33 жарко 1013.5 1010.6 +20.1
06 19.07 В 4 20 км ясно +27.4 +10.6 35 +28 +35 жарко 1013.6 1010.8
09 19.07 В 3 20 км ясно +28.3 +10.1 32 +29 +36 жарко 1013.7 1010.9
12 19.07 В 3 20 км ясно +27.9 +7.7 28 +27 +30 жарко 1014.1 1011.3
15 19.07 В 2 20 км ясно +24.8 +9.9 39 +26 +26 жарко 1014.6 1011.7 +28.4
18 19.07 ЮВ 2 20 км ясно +19.6 +10.0 54 +21 +21 комфорт 1015.7 1012.8
21 19.07 Ю 2 20 км ясно +17.0 +9.3 60
00 20.07 ЮВ 4 20 км ясно +18.0 +8.7 55 +18 +19 1017.2 1014.3
03 20.07 ЮВ 4 20 км ясно +22.2 +9.8 45 +24 +28 комфорт 1017.3 1014.4 +16.8
06 20.07 ЮВ 4 20 км ясно +25.9 +6.1 28 +25 +33 комфорт 1017.2 1014.3
09 20.07 ЮЗ 5 20 км ясно +26.8 +5.3 25
12 20.07 ЮВ 3 20 км 3/0
[Ci fib]
+26.3 +4.1 24 +25 +28 комфорт 1016.5 1013.6
15 20.07 ЮВ 4 20 км 9/0
[Ci fib]
+23.3 +6.5 34 +24 +24 комфорт 1016.6 1013.7 +27.1
18 20.07 В 2 20 км ясно +17.4 +6.3 48 +18 +18 1017.1 1014.2
21 20.07 В 1 20 км ясно +13.4 +7.2 66 +14 +14 1017.3 1014.3
00 21.07 В 2 20 км ясно +16.3 +8.3 59 +16 +18 1017.2 1014.3
03 21.07 ЮВ 3 20 км ясно +22.3 +6.1 35 +23 +28 комфорт 1016.6 1013.7 +13.2
06 21.07 ЮЗ 2 20 км 1/0
[Ci fib]
+25.5 +4.7 26 +13.2
09 21.07 Ю 1 20 км 1/0
[Ci fib]
+26.9 +3.1 22 +26 +35 жарко 1014.0 1011.2
12 21.07 штиль 0 20 км 3/0
[Ci fib]
+27.0 +3.4 22 +26 +29 жарко 1013.2 1010.4
15 21.07 С 2 20 км 3/0
[Ci fib]
+23.3 +9.7 42 +25 +25 комфорт 1013.2 1010.3 +27.3
18 21.07 В 1 20 км 3/0
[Ci fib]
+17.6 +9.4 59 +19 +19 1013.1 1010.1
21 21.07 СВ 1 20 км 3/0
[Ci fib]
+12.7 +9.1 79 +13 +13 1012.8 1009.8
00 22.07 СВ 1 20 км ясно +17.1 +9.5 61 +18 +20 1012.1 1009.1
03 22.07 С 2 20 км ясно +24.4 +8.0 35 +25 +31 комфорт 1011.3 1008.4 +12.6
06 22.07 СВ 3 20 км 3/0
[Ci fib]
+26.6 +5.9 27 +26 +34 жарко 1009.8 1007.0
09 22.07 СВ 3 2000 м дым 10/6 450 м
[Sc Ac trans Ci fib]
+26.2 +3.2 23 +25 +26 комфорт 1009.0 1006.2
12 22.07 СВ 2 2000 м дым 10/0
[Ac trans]
+25.8 +5.2 27 +25 +27 комфорт 1008.8 1006.0
15 22.07 С 2 20 км 9/0
[Ac trans Ci fib]
+21.3 +11.7 54 +23 +23 комфорт 1008.6 1005.8 +27.0
18 22.07 СВ 2 20 км 3/0
[Ci fib]
+16.7 +9.3 62 +17 +17 1008.2 1005.3
21 22.07 СВ 1 20 км 4/0
[Ci fib]
+13.4 +10.7 84 +14 +14 1007.9 1005.0
00 23.07 СВ 3 20 км 8/0
[Ci fib]
+14.2 +11.7 85 +13 +14 1007.7 1004.8
03 23.07 СВ 3 20 км 10/0
[As trans]
+19.7 +11.1 58 +21 +24 комфорт 1007.2 1004.3 +12.3
06 23.07 СВ 4 2000 м дым 10/0
[As trans]
+22.7 +10.7 47 +25 +28 комфорт 1006.2 1003.4
09 23.07 С 4 2000 м дым 10/0
[As trans]
+24.1 +11.3 45 +26 +28 жарко 1005.5 1002.7
12 23.07 СВ 4 20 км дым 10/0
[As trans]
+24.1 +13.5 52 +26 +27 жарко 1004.8 1002.0
15 23.07 С 6 20 км 10/5 360 м
[Sc As trans]
+20.9 +13.7 63 +23 +23 комфорт 1004.7 1001.8 +24.4
18 23.07 С 4 20 км 10/6 400 м
[Sc As trans]
+13.8 +11.0 83 +12 +12 1004.6 1001.7
00 24.07 С 3 20 км 10/5 420 м
[Sc As trans]
+13.1 +10.6 85 +12 +12 1004.2 1001.3
03 24.07 С 3 20 км 10/5 400 м
[Sc As trans]
+15.0 +12.0 82 +14 +15 1004.0 1001.1 +13.1

 

Местоположение метеостанции Красноселькупск (Ямало-Ненецкий АО, Россия): широта 65.70 долгота 82.45 высота над уровнем моря 25 м.

В архиве по умолчанию представлена погода в Красноселькупске за последнюю неделю. Архивные данные за месяц целиком и за предыдущие месяцы, начиная с января 2011 года, Вы можете получить, выбрав интересующий диапазон дат из раскрывающегося списка и нажав кнопку "Ввод!".


*Определитесь, кто Вы:
робот инопланетянин человек

Внимание! Время в таблицах - всемирное. Для получения местного времени необходимо прибавить поправку, которая равна 5 ч.

Смотрите также архив погоды в соседних городах и на ближайших метеорологических станциях:

Погода в Советской Речке (Красноярский край, Россия) (138 км)
Погода в Уренгое (Ямало-Ненецкий АО, Россия) (187 км)
Погода в Тольке (Ямало-Ненецкий АО, Россия) (192 км)
Погода в Курейке (Красноярский край, Россия) (231 км)
Погода в Тарко-Сале (Ямало-Ненецкий АО, Россия) (232 км)
Погода в Туруханске (Красноярский край, Россия) (251 км)
Погода в Тазовском (Ямало-Ненецкий АО, Россия) (256 км)
Погода в Новом Уренгое (Ямало-Ненецкий АО, Россия) (261 км)
Погода в Игарке (Красноярский край, Россия) (268 км)
Погода в Верещагино (Красноярский край, Россия) (287 км)

Пояснения к столбцам:

Ветер - указаны скорость ветра в м/с - средняя за 10 мин, порывы в срок и между сроками (в фигурных скобках) и направление, откуда дует ветер: С - северный, СВ - северо-восточный, В - восточный, ЮВ - юго-восточный, Ю - южный, ЮЗ - юго-западный, З - западный, СЗ - северо-западный.
Видимость - горизонтальная дальность видимости в метрах или километрах. При видимости от 1 до 10 км при отсутствии осадков обычно наблюдается дымка, при ухудшении видимости до 1 км и менее - туман. В сухую погоду видимость может ухудшаться дымом, пылью или мглою.
Явления - указаны атмосферные явления, наблюдавшиеся в срок или в последний час перед сроком; фигурными скобками обозначены явления, наблюдавшиеся между сроками (за 1-3 часа до срока); квадратными скобками обозначены град или гололедные отложения с указанием их диаметра в мм.
Облачность - указаны через наклонную черту общая и нижняя облачность в баллах и высота нижней границы облаков в метрах; квадратными скобками обозначены формы облаков: Ci - перистые, Cs - перисто-слоистые, Cc - перисто-кучевые, Ac - высококучевые, As - высокослоистые, Sc - слоисто-кучевые, Ns - слоисто-дождевые, Cu - кучевые, Cb - кучево-дождевые. Подробнее классификацию облаков см. в Атласе облаков (PDF).
T - Температура воздуха - температура, измеренная на высоте 2 м над землей.
Td - Температура точки росы - температура, при понижении до которой содержащийся в воздухе водяной пар достигнет насыщения.
f - Относительная влажность воздуха - влажноcть воздуха, измеренная на высоте 2 м над землей.
Te - Эффективная температура - температура, которую ощущает одетый по сезону человек в тени. Характеристика душности погоды. При расчете учитывается влияние влажности воздуха и скорости ветра на теплоощущения человека.
Tes - Эффективная температура на солнце - температура, которую ощущает человек, с поправкой на солнечный нагрев. Характеристика знойности погоды. Зависит от высоты солнца над горизонтом, облачности и скорости ветра. Ночью, в пасмурную погоду, а также при ветре 12 м/с и более поправка равна нулю.
P - Атмосферное давление - приведенное к уровню моря атмосферное давление.
Po - Атмосферное давление - измеренное на уровне метеостанции атмосферное давление.
Tmin - Минимальная температура - минимум температуры воздуха на высоте 2 м над землей.
Tmax - Максимальная температура - максимум температуры воздуха на высоте 2 м над землей.
R - Количество осадков - Количество выпавших осадков за период времени, мм. При наведении курсора мыши на число - период времени, за который выпало указанное количество осадков.
R24 - Количество осадков - Количество выпавших осадков за 24 часа, мм.
S - Снежный покров - Высота снежного покрова, см. При наведении курсора мыши на число - состояние снежного покрова и степень покрытия местности в баллах.